GW2067 Weather Reports


Display with metric or nautical units.
time (UTC)temp
F
wind
direction
speed
MPH
gust
MPH
rain 1hr
in
rain 24hr
in
rain mn
in
humidity
%
barometer
mb
20260505170903 59 334 0.0 0.0 0.00 0.09 0.09 93 1004.0
20260505170400 59 333 0.0 0.0 0.00 0.09 0.09 95 1004.5
20260505165855 59 329 2.0 2.0 0.00 0.09 0.09 94 1004.5
20260505165350 59 291 0.0 1.0 0.00 0.09 0.09 94 1004.7
20260505164846 58 263 1.0 2.0 0.00 0.09 0.09 93 1004.5
20260505164343 58 259 3.0 3.0 0.00 0.09 0.09 93 1004.7
20260505163842 58 287 5.0 7.0 0.00 0.09 0.09 94 1004.9
20260505163340 58 351 3.0 3.0 0.00 0.09 0.09 95 1004.9
20260505162838 59 260 5.0 7.0 0.00 0.09 0.09 96 1005.0
20260505162334 58 297 5.0 8.0 0.00 0.09 0.09 97 1005.3
20260505161831 58 308 1.0 2.0 0.00 0.09 0.09 99 1005.4
20260505161328 57 87 2.0 3.0 0.00 0.09 0.09 99 1005.5
20260505160825 56 303 1.0 2.0 0.00 0.09 0.09 99 1005.7
20260505160324 55 338 1.0 2.0 0.00 0.09 0.09 99 1005.8
20260505153302 53 291 2.0 2.0 0.05 0.08 0.08 99 1006.1
20260505152759 53 338 2.0 2.0 0.12 0.08 0.08 99 1006.7
20260505152255 53 287 3.0 5.0 0.19 0.07 0.07 99 1006.8
20260505151750 53 260 7.0 8.0 0.17 0.06 0.06 97 1006.6
20260505151248 54 336 9.0 10.0 0.17 0.04 0.04 96 1006.3
20260505150744 55 283 8.0 10.0 0.19 0.03 0.03 92 1006.6
20260505150241 57 263 6.0 13.0 0.07 0.01 0.01 86 1006.6
20260505140206 63 260 5.0 6.0 0.00 0.00 0.00 68 1005.5
20260505130130 58 298 4.0 6.0 0.00 0.00 0.00 80 1005.6
20260505124619 57 318 2.0 2.0 0.00 0.00 0.00 80 1005.8
20260505124116 56 252 1.0 1.0 0.00 0.00 0.00 83 1005.7
20260505123612 56 302 3.0 3.0 0.00 0.00 0.00 83 1005.8
20260505123109 55 154 0.0 2.0 0.00 0.00 0.00 83 1005.7
20260505122605 55 329 2.0 2.0 0.00 0.00 0.00 85 1005.9
20260505122103 55 4 0.0 1.0 0.00 0.00 0.00 85 1005.8
20260505121559 54 53 1.0 1.0 0.00 0.00 0.00 86 1005.6
20260505121056 54 294 3.0 3.0 0.00 0.00 0.00 85 1005.9
20260505120552 53 309 2.0 2.0 0.00 0.00 0.00 88 1006.0
20260505120048 51 300 0.0 1.0 0.00 0.00 0.00 89 1006.1
20260505115542 51 6 2.0 2.0 0.00 0.00 0.00 92 1006.1
20260505115040 50 329 1.0 1.0 0.00 0.00 0.00 96 1006.1
20260505114537 48 350 2.0 2.0 0.00 0.00 0.00 99 1005.9
20260505114033 47 342 0.0 1.0 0.00 0.00 0.00 99 1006.0
20260505113530 47 345 0.0 0.0 0.00 0.00 0.00 99 1006.0
20260505113026 46 17 0.0 0.0 0.00 0.00 0.00 99 1005.9
20260505112522 45 344 1.0 1.0 0.00 0.00 0.00 99 1006.3
20260505112020 44 316 1.0 1.0 0.00 0.00 0.00 99 1006.1
20260505111514 43 326 1.0 2.0 0.00 0.00 0.00 99 1006.3
20260505111011 42 345 1.0 1.0 0.00 0.00 0.00 99 1006.2
20260505110507 40 3 0.0 1.0 0.00 0.00 0.00 99 1006.5
20260505101939 35 340 1.0 1.0 0.00 0.00 0.00 99 1006.7
20260505101432 35 332 0.0 1.0 0.00 0.00 0.00 99 1006.6
20260505100928 35 317 0.0 0.0 0.00 0.00 0.00 99 1006.7
20260505100426 34 313 1.0 2.0 0.00 0.00 0.00 99 1006.7
20260505095921 34 313 1.0 1.0 0.00 0.00 0.00 99 1006.7
20260505095419 34 343 0.0 0.0 0.00 0.00 0.00 99 1006.5
20260505094914 34 337 1.0 2.0 0.00 0.00 0.00 99 1006.5
20260505094412 33 322 0.0 1.0 0.00 0.00 0.00 99 1006.5
20260505093908 33 342 0.0 0.0 0.00 0.00 0.00 99 1006.6
20260505093405 33 305 1.0 1.0 0.00 0.00 0.00 99 1006.7
20260505092902 32 329 1.0 1.0 0.00 0.00 0.00 99 1006.8
20260505092400 32 320 1.0 1.0 0.00 0.00 0.00 99 1006.5
20260505091857 31 325 1.0 1.0 0.00 0.00 0.00 99 1006.6
20260505091355 31 329 1.0 1.0 0.00 0.00 0.00 99 1006.7
20260505090852 32 309 2.0 2.0 0.00 0.00 0.00 99 1006.5
20260505090351 32 325 1.0 1.0 0.00 0.00 0.00 99 1006.2
20260505085848 32 315 1.0 1.0 0.00 0.00 0.00 99 1006.6
20260505085345 32 334 0.0 0.0 0.00 0.00 0.00 99 1006.6
20260505084843 32 329 1.0 1.0 0.00 0.00 0.00 99 1006.5
20260505084341 31 352 1.0 1.0 0.00 0.00 0.00 99 1006.6
20260505083838 31 336 0.0 0.0 0.00 0.00 0.00 99 1006.5
20260505083336 32 330 0.0 0.0 0.00 0.00 0.00 99 1006.7
20260505082832 32 346 1.0 1.0 0.00 0.00 0.00 99 1006.8
20260505082328 32 315 0.0 1.0 0.00 0.00 0.00 99 1006.8
20260505081825 32 342 0.0 0.0 0.00 0.00 0.00 99 1006.7
20260505081322 32 346 1.0 1.0 0.00 0.00 0.00 99 1006.9
20260505080819 31 336 0.0 0.0 0.00 0.00 0.00 99 1006.8
20260505080314 31 335 0.0 0.0 0.00 0.00 0.00 99 1006.8
20260505075810 31 341 1.0 1.0 0.00 0.00 0.00 99 1007.0
20260505075307 32 327 0.0 1.0 0.00 0.00 0.00 99 1007.1
20260505074804 32 336 0.0 0.0 0.00 0.00 0.00 99 1006.9
20260505074302 33 336 1.0 1.0 0.00 0.00 0.00 99 1007.0
20260505073759 32 359 2.0 2.0 0.00 0.00 0.00 99 1007.0
20260505073257 33 340 1.0 2.0 0.00 0.00 0.00 99 1007.0
20260505072753 32 347 2.0 2.0 0.00 0.00 0.00 99 1006.8
20260505072250 32 329 2.0 2.0 0.00 0.00 0.00 99 1006.9
20260505071745 32 332 0.0 0.0 0.00 0.00 0.00 99 1006.9
20260505071242 32 0 2.0 2.0 0.00 0.00 0.00 99 1006.7
20260505070740 32 342 1.0 1.0 0.00 0.00 0.00 99 1006.9
20260505070236 32 353 1.0 1.0 0.00 0.00 0.00 99 1007.2
20260505065732 32 342 0.0 0.0 0.00 0.00 0.00 99 1007.0
20260505065229 33 324 2.0 2.0 0.00 0.00 0.00 99 1006.9
20260505064726 33 341 0.0 0.0 0.00 0.00 0.00 99 1006.8
20260505064223 32 346 0.0 0.0 0.00 0.00 0.00 99 1007.0
20260505063721 32 350 1.0 2.0 0.00 0.00 0.00 99 1007.1
20260505063217 33 321 1.0 1.0 0.00 0.00 0.00 99 1007.1
20260505062713 33 345 0.0 1.0 0.00 0.00 0.00 99 1007.1
20260505062211 33 347 0.0 1.0 0.00 0.00 0.00 99 1007.4
20260505061708 33 336 0.0 1.0 0.00 0.00 0.00 99 1007.4
20260505061206 33 328 1.0 1.0 0.00 0.00 0.00 99 1007.4
20260505060703 33 338 0.0 0.0 0.00 0.00 0.00 99 1007.3
20260505060200 33 340 0.0 0.0 0.00 0.00 0.00 99 1007.4
20260505055655 34 343 0.0 0.0 0.00 0.00 0.00 99 1007.2
20260505055152 34 329 1.0 1.0 0.00 0.00 0.00 99 1007.5
20260505054649 35 344 0.0 0.0 0.00 0.00 0.00 99 1007.5
20260505054147 35 338 0.0 0.0 0.00 0.00 0.00 99 1007.7
20260505053645 34 340 0.0 0.0 0.00 0.00 0.00 99 1007.6
20260505053141 33 340 0.0 0.0 0.00 0.00 0.00 99 1007.7
20260505052638 33 325 1.0 1.0 0.00 0.00 0.00 99 1007.5
20260505052135 33 333 0.0 1.0 0.00 0.00 0.00 99 1007.5
20260505051632 34 327 1.0 1.0 0.00 0.00 0.00 99 1007.8
20260505051130 33 339 0.0 0.0 0.00 0.00 0.00 99 1007.8
20260505050628 33 334 1.0 1.0 0.00 0.00 0.00 99 1007.8
20260505050126 33 333 0.0 0.0 0.00 0.00 0.00 99 1007.9
20260505041555 33 324 2.0 2.0 0.00 0.00 0.00 99 1008.0
20260505041053 34 329 1.0 1.0 0.00 0.00 0.00 99 1008.2
20260505040550 34 330 1.0 1.0 0.00 0.00 0.00 99 1008.2
20260505040047 34 325 0.0 1.0 0.00 0.14 0.14 99 1008.2
20260505035543 34 321 2.0 2.0 0.00 0.14 0.14 99 1008.2
20260505035040 34 343 0.0 0.0 0.00 0.14 0.14 99 1008.0
20260505034536 35 332 0.0 0.0 0.00 0.14 0.14 99 1008.0
20260505034033 34 334 1.0 1.0 0.00 0.14 0.14 99 1008.3
20260505033530 35 336 0.0 0.0 0.00 0.14 0.14 99 1008.1
20260505033029 34 315 2.0 2.0 0.00 0.14 0.14 99 1008.3
20260505032526 35 328 1.0 1.0 0.00 0.14 0.14 99 1008.0
20260505032022 34 346 0.0 0.0 0.00 0.14 0.14 99 1008.0
20260505031520 34 332 0.0 0.0 0.00 0.14 0.14 99 1008.2
20260505031016 34 316 1.0 1.0 0.00 0.14 0.14 99 1008.4
20260505030513 34 317 0.0 1.0 0.00 0.14 0.14 99 1008.2
20260505030009 34 322 1.0 1.0 0.00 0.14 0.14 99 1008.3
20260505025505 34 332 0.0 0.0 0.00 0.14 0.14 99 1008.2
20260505025004 34 317 1.0 1.0 0.00 0.14 0.14 99 1008.3
20260505024500 34 333 0.0 0.0 0.00 0.14 0.14 99 1008.1
20260505023957 34 344 1.0 1.0 0.00 0.14 0.14 99 1008.4
20260505023454 33 332 0.0 0.0 0.00 0.14 0.14 99 1008.1
20260505022952 33 331 0.0 0.0 0.00 0.14 0.14 99 1008.1
20260505022449 33 320 1.0 1.0 0.00 0.14 0.14 99 1008.3
20260505021947 33 323 1.0 1.0 0.00 0.14 0.14 99 1008.4
20260505021443 33 314 2.0 2.0 0.00 0.14 0.14 99 1008.5
20260505020939 33 323 1.0 1.0 0.00 0.14 0.14 99 1008.5
20260505020434 33 333 1.0 1.0 0.00 0.14 0.14 99 1008.5
20260505015931 33 313 1.0 2.0 0.00 0.14 0.14 99 1008.6
20260505015428 33 302 1.0 2.0 0.00 0.14 0.14 99 1008.9
20260505014926 33 318 1.0 2.0 0.00 0.14 0.14 99 1008.5
20260505014422 33 315 1.0 1.0 0.00 0.14 0.14 99 1008.8
20260505013919 33 321 2.0 2.0 0.00 0.14 0.14 99 1008.6
20260505013416 34 325 2.0 2.0 0.00 0.14 0.14 99 1008.5
20260505012914 33 326 1.0 1.0 0.00 0.14 0.14 99 1008.5
20260505012412 33 328 1.0 1.0 0.00 0.14 0.14 99 1008.3
20260505011908 33 322 1.0 1.0 0.00 0.14 0.14 99 1008.4
20260505011405 33 318 1.0 1.0 0.00 0.14 0.14 99 1008.4
20260505010901 34 321 1.0 1.0 0.00 0.14 0.14 99 1008.4
20260505010357 33 341 2.0 3.0 0.00 0.14 0.14 99 1008.2
20260505005853 34 324 0.0 0.0 0.00 0.14 0.14 99 1008.3
20260505005350 35 324 0.0 0.0 0.00 0.14 0.14 99 1008.2
20260505004848 35 328 0.0 0.0 0.00 0.14 0.14 99 1008.1
20260505004344 35 326 0.0 0.0 0.00 0.14 0.14 99 1008.3
20260505003841 35 326 0.0 0.0 0.00 0.14 0.14 99 1008.4
20260505003338 36 329 0.0 0.0 0.00 0.14 0.14 99 1008.0
20260505002834 35 329 0.0 0.0 0.00 0.14 0.14 99 1008.0
20260505002331 36 321 1.0 1.0 0.00 0.14 0.14 99 1008.1
20260505001830 36 324 1.0 1.0 0.00 0.14 0.14 99 1008.0
20260505001326 37 321 1.0 1.0 0.00 0.14 0.14 99 1008.0
20260505000824 37 327 1.0 1.0 0.00 0.14 0.14 99 1007.8
20260505000321 38 328 1.0 1.0 0.00 0.14 0.14 99 1007.8
20260504235818 39 324 1.0 1.0 0.00 0.14 0.14 99 1007.9
20260504235315 39 329 0.0 0.0 0.00 0.14 0.14 99 1007.9
20260504234811 40 332 1.0 1.0 0.00 0.14 0.14 99 1007.7
20260504234309 40 329 0.0 0.0 0.00 0.14 0.14 99 1007.9
20260504233805 40 331 0.0 0.0 0.00 0.14 0.14 99 1007.8
20260504233301 41 333 0.0 1.0 0.00 0.14 0.14 99 1007.6
20260504232758 41 336 0.0 0.0 0.00 0.14 0.14 99 1007.8
20260504232255 42 334 0.0 1.0 0.00 0.14 0.14 99 1007.2
20260504231752 42 265 2.0 2.0 0.00 0.14 0.14 99 1007.7
20260504231248 43 315 1.0 1.0 0.00 0.14 0.14 99 1007.5
20260504230744 43 284 1.0 1.0 0.00 0.14 0.14 99 1007.3
20260504230243 43 264 2.0 2.0 0.00 0.14 0.14 99 1007.2
20260504225741 43 316 1.0 1.0 0.00 0.14 0.14 99 1007.4
20260504225237 43 263 2.0 2.0 0.00 0.14 0.14 99 1007.4
20260504224734 43 309 1.0 1.0 0.00 0.14 0.14 99 1007.2
20260504224232 43 324 1.0 1.0 0.00 0.14 0.14 99 1007.2
20260504223728 43 305 1.0 1.0 0.00 0.14 0.14 99 1007.3
20260504223223 43 307 2.0 2.0 0.00 0.14 0.14 99 1007.4
20260504222721 44 303 3.0 3.0 0.00 0.14 0.14 98 1007.2
20260504222218 43 277 1.0 2.0 0.00 0.14 0.14 99 1007.0
20260504221715 43 332 1.0 1.0 0.00 0.14 0.14 99 1007.1
20260504221212 43 294 2.0 2.0 0.00 0.14 0.14 98 1007.2
20260504220708 43 285 3.0 3.0 0.00 0.14 0.14 98 1007.1
20260504220206 43 300 3.0 5.0 0.00 0.14 0.14 98 1007.2
20260504215702 43 286 4.0 6.0 0.00 0.14 0.14 99 1007.2
20260504215200 44 273 3.0 6.0 0.00 0.14 0.14 99 1007.0
20260504214655 44 282 4.0 5.0 0.00 0.14 0.14 98 1007.2
20260504214152 44 268 3.0 5.0 0.00 0.14 0.14 98 1007.0
20260504213649 43 260 4.0 5.0 0.00 0.14 0.14 99 1007.3
20260504213145 43 317 2.0 2.0 0.00 0.14 0.14 99 1007.0
20260504212642 43 237 3.0 6.0 0.00 0.14 0.14 99 1007.1
20260504212138 43 281 3.0 3.0 0.00 0.14 0.14 99 1007.2
20260504211636 43 333 4.0 6.0 0.00 0.14 0.14 98 1006.8
20260504211132 43 331 2.0 3.0 0.00 0.14 0.14 99 1006.9
20260504210630 43 258 3.0 3.0 0.00 0.14 0.14 99 1006.9
20260504210126 42 252 3.0 7.0 0.00 0.14 0.14 99 1006.8
20260504205624 42 278 3.0 6.0 0.00 0.14 0.14 99 1007.1
20260504205121 42 265 2.0 2.0 0.00 0.14 0.14 99 1006.8
20260504204620 42 311 3.0 3.0 0.00 0.14 0.14 99 1006.9
20260504204118 42 265 4.0 6.0 0.00 0.14 0.14 99 1007.1
20260504203616 42 247 3.0 3.0 0.00 0.14 0.14 99 1006.8
20260504203114 42 288 2.0 2.0 0.00 0.14 0.14 99 1006.7
20260504202609 41 312 3.0 3.0 0.00 0.14 0.14 99 1006.8
20260504202106 41 294 2.0 2.0 0.00 0.14 0.14 99 1007.0
20260504201603 41 268 3.0 3.0 0.00 0.14 0.14 99 1006.8
20260504201101 41 284 4.0 5.0 0.00 0.14 0.14 99 1006.9
20260504200556 40 257 4.0 5.0 0.00 0.14 0.14 99 1006.9
20260504200053 40 314 3.0 3.0 0.00 0.14 0.14 99 1007.0
20260504195550 41 265 2.0 2.0 0.00 0.14 0.14 99 1006.9
20260504195046 40 288 2.0 2.0 0.00 0.14 0.14 99 1006.8
20260504194543 40 299 2.0 2.0 0.00 0.14 0.14 99 1006.8
20260504194038 40 321 1.0 1.0 0.00 0.14 0.14 99 1006.6
20260504193535 40 308 1.0 1.0 0.00 0.14 0.14 99 1006.8
20260504193034 40 285 1.0 2.0 0.00 0.14 0.14 99 1006.7
20260504192532 39 334 2.0 2.0 0.00 0.14 0.14 99 1006.7
20260504192030 39 287 3.0 3.0 0.00 0.14 0.14 99 1006.9
20260504191527 39 327 1.0 1.0 0.00 0.14 0.14 99 1006.7
20260504191023 39 309 2.0 2.0 0.00 0.14 0.14 99 1006.6
20260504190520 39 242 2.0 3.0 0.00 0.14 0.14 99 1006.6
20260504190015 39 338 1.0 1.0 0.00 0.14 0.14 99 1006.5
20260504185513 39 298 1.0 2.0 0.00 0.14 0.14 99 1006.5
20260504185009 39 286 3.0 5.0 0.00 0.14 0.14 99 1006.8
20260504184504 39 336 1.0 1.0 0.00 0.14 0.14 99 1006.6
20260504184000 39 244 2.0 2.0 0.00 0.14 0.14 99 1006.7
20260504183457 38 275 2.0 2.0 0.00 0.14 0.14 99 1006.8
20260504182955 39 282 1.0 1.0 0.00 0.14 0.14 99 1006.9
20260504182452 38 227 1.0 1.0 0.00 0.14 0.14 99 1006.7
20260504181949 38 280 1.0 2.0 0.00 0.14 0.14 99 1007.0
20260504181446 38 344 0.0 0.0 0.00 0.14 0.14 99 1006.8
20260504180945 38 326 0.0 1.0 0.00 0.14 0.14 99 1006.8
20260504180443 37 266 3.0 5.0 0.00 0.14 0.14 99 1006.6
20260504175941 37 282 1.0 2.0 0.00 0.14 0.14 99 1006.7
20260504175438 38 260 3.0 3.0 0.00 0.14 0.14 99 1006.7
20260504174936 38 301 2.0 2.0 0.00 0.14 0.14 99 1006.7
20260504174433 37 299 2.0 3.0 0.00 0.14 0.14 99 1006.6
20260504173930 38 248 2.0 2.0 0.00 0.14 0.14 99 1006.3
20260504173426 37 59 1.0 2.0 0.00 0.14 0.14 99 1006.3
20260504172924 37 307 3.0 3.0 0.00 0.14 0.14 99 1006.5
20260504172420 37 335 1.0 1.0 0.00 0.14 0.14 99 1006.5
20260504171916 37 242 5.0 6.0 0.00 0.14 0.14 99 1006.7
20260504171414 37 267 1.0 2.0 0.00 0.14 0.14 99 1006.6